Middletown, PA

11:07 AM EDT on April 29, 2017 (GMT -0400)
Harrisburg International

Weather History for KMDT - December, 2012

Change the Weather History Date:

Thursday, December 27, 2012

  Actual Average Record
Temperature  
Mean Temperature 34 °F 32 °F  
Max Temperature 36 °F 38 °F 59 °F (1936)
Min Temperature 32 °F 25 °F 1 °F (1914)
Degree Days  
Heating Degree Days 31 34  
Month to date heating degree days 673 827  
Since 1 July heating degree days 1738 1866  
Cooling Degree Days 0 0  
Month to date cooling degree days 0 0  
Year to date cooling degree days 1226 1002  
Moisture  
Dew Point 28 °F    
Average Humidity 83    
Maximum Humidity 96    
Minimum Humidity 69    
Precipitation  
Precipitation 0.08 in 0.10 in 1.13 in (1930)
Month to date precipitation 3.54 2.89  
Year to date precipitation 44.97 40.40  
Snow  
Snow T in 0.20 in 7.00 in (1894)
Month to date snowfall 3.9 4.2  
Since 1 July snowfall 5.0 4.8  
Snow Depth 1.00 in    
Sea Level Pressure  
Sea Level Pressure 29.66 in    
Wind  
Wind Speed 18 mph (NW)    
Max Wind Speed 31 mph    
Max Gust Speed 38 mph    
Visibility 9 miles    
Events Rain , Snow    
T = Trace of Precipitation, MM = Missing Value Source: NWS Daily Summary

Daily Weather History Graph

Daily Weather History Graph

Search for Another Location

Airport or City:

Trip Planner

Search our weather history database for the weather conditions in past years. The results will help you decide how hot, cold, wet, or windy it might be!

Date:

Astronomy

Dec. 27, 2012 Rise Set
Actual Time 7:28 AM EST 4:48 PM EST
Civil Twilight 6:57 AM EST 5:19 PM EST
Nautical Twilight 6:23 AM EST 5:53 PM EST
Astronomical Twilight 5:50 AM EST 6:26 PM EST
Moon 4:29 PM EST (12/27) 6:37 AM EST (12/27)
Length of Visible Light 10h 21m
Length of Day
9h 19m
Full, 100% of the Moon is Illuminated
Dec 27
Full
Dec 28
Full
Jan 4
Last Quarter
Jan 11
New
Jan 18
First Quarter

Hourly Weather History & Observations

Time (EST) Temp. Windchill Dew Point Humidity Pressure Visibility Wind Dir Wind Speed Gust Speed Precip Events Conditions
12:56 AM 34.0 °F 27.2 °F 32.0 °F 92% 29.44 in 7.0 mi NW 8.1 mph - 0.03 in Rain Light Rain
1:27 AM 35.6 °F 29.9 °F 32.0 °F 87% 29.44 in 10.0 mi North 6.9 mph - 0.01 in   Overcast
1:56 AM 34.0 °F 25.0 °F 32.0 °F 92% 29.47 in 10.0 mi NW 12.7 mph - 0.01 in Rain Light Rain
2:16 AM 33.8 °F 23.2 °F 32.0 °F 93% 29.47 in 9.0 mi NW 17.3 mph - 0.00 in Rain Light Rain
2:29 AM 33.8 °F 23.5 °F 32.0 °F 93% 29.48 in 7.0 mi NW 16.1 mph - 0.00 in Rain Light Rain
2:56 AM 33.1 °F 23.0 °F 30.9 °F 92% 29.49 in 5.0 mi NW 15.0 mph - 0.01 in Rain Light Rain
3:34 AM 33.8 °F 24.3 °F 30.2 °F 87% 29.48 in 4.0 mi NW 13.8 mph - 0.01 in Rain Light Rain
3:56 AM 33.1 °F 23.4 °F 30.9 °F 92% 29.49 in 6.0 mi NW 13.8 mph - 0.02 in Rain Light Rain
4:11 AM 33.8 °F 24.3 °F 30.2 °F 87% 29.48 in 8.0 mi NW 13.8 mph - 0.00 in Rain Light Rain
4:27 AM 33.8 °F 22.8 °F 30.2 °F 87% 29.48 in 2.0 mi NW 18.4 mph 24.2 mph 0.01 in Snow Light Snow
4:31 AM 33.8 °F 23.2 °F 30.2 °F 87% 29.48 in 2.0 mi NW 17.3 mph - 0.02 in Snow Light Snow
4:56 AM 33.1 °F 23.0 °F 30.9 °F 92% 29.51 in 5.0 mi NW 15.0 mph - 0.02 in Snow Light Snow
5:02 AM 33.8 °F 23.9 °F 30.2 °F 87% 29.49 in 9.0 mi NNW 15.0 mph - 0.00 in   Light Freezing Drizzle
5:19 AM 33.8 °F 23.2 °F 30.2 °F 87% 29.50 in 10.0 mi NW 17.3 mph - 0.00 in   Overcast
5:56 AM 33.1 °F 22.2 °F 30.0 °F 89% 29.54 in 10.0 mi NW 17.3 mph - 0.00 in   Overcast
6:56 AM 33.1 °F 22.6 °F 30.0 °F 89% 29.58 in 9.0 mi NW 16.1 mph - 0.00 in Snow Light Snow
7:56 AM 33.1 °F 20.9 °F 28.0 °F 82% 29.62 in 10.0 mi WNW 21.9 mph 27.6 mph 0.00 in   Overcast
8:20 AM 33.8 °F 22.2 °F 26.6 °F 75% 29.62 in 10.0 mi NW 20.7 mph 27.6 mph N/A   Overcast
8:56 AM 33.1 °F 20.6 °F 27.0 °F 78% 29.65 in 10.0 mi NW 23.0 mph 28.8 mph N/A   Overcast
9:02 AM 33.8 °F 22.2 °F 26.6 °F 75% 29.64 in 10.0 mi NW 20.7 mph 31.1 mph N/A   Overcast
9:56 AM 34.0 °F 20.5 °F 26.1 °F 73% 29.69 in 10.0 mi NW 28.8 mph 35.7 mph N/A   Overcast
10:56 AM 33.1 °F 21.5 °F 26.1 °F 75% 29.73 in 10.0 mi NW 19.6 mph 32.2 mph N/A   Overcast
11:56 AM 33.1 °F 20.9 °F 25.0 °F 72% 29.73 in 10.0 mi WNW 21.9 mph 31.1 mph N/A   Overcast
12:56 PM 33.1 °F 21.5 °F 25.0 °F 72% 29.75 in 10.0 mi NW 19.6 mph 31.1 mph N/A   Overcast
2:56 PM 33.8 °F 21.6 °F 24.8 °F 70% 29.76 in 10.0 mi NW 23.0 mph 32.2 mph N/A   Mostly Cloudy
3:56 PM 34.0 °F 22.4 °F 25.0 °F 70% 29.81 in 10.0 mi NW 20.7 mph 27.6 mph N/A   Mostly Cloudy
4:56 PM 34.0 °F 23.4 °F 25.0 °F 70% 29.83 in 10.0 mi WNW 17.3 mph - N/A   Overcast
5:56 PM 34.0 °F 23.8 °F 25.0 °F 70% 29.87 in 10.0 mi WNW 16.1 mph 24.2 mph N/A   Overcast
6:56 PM 34.0 °F 24.6 °F 25.0 °F 70% 29.91 in 10.0 mi NW 13.8 mph - N/A   Overcast
7:56 PM 33.1 °F 22.6 °F 24.1 °F 70% 29.92 in 10.0 mi NW 16.1 mph 25.3 mph N/A   Overcast
8:56 PM 33.1 °F 20.6 °F 24.1 °F 70% 29.95 in 10.0 mi NW 23.0 mph 27.6 mph N/A   Overcast
9:56 PM 33.1 °F 21.2 °F 24.1 °F 70% 29.96 in 10.0 mi NW 20.7 mph 28.8 mph N/A   Overcast
10:35 PM 33.8 °F 25.3 °F 24.8 °F 70% 29.95 in 10.0 mi NW 11.5 mph - N/A   Overcast
10:56 PM 33.1 °F 24.4 °F 24.1 °F 70% 29.98 in 10.0 mi NW 11.5 mph - N/A   Overcast
11:56 PM 33.1 °F 24.9 °F 25.0 °F 72% 29.99 in 10.0 mi WNW 10.4 mph - N/A   Overcast